{"data":{"norad_id":56200,"epoch":"2026-09-20T03:28:16.997088Z","epoch_age_seconds":45141,"freshness":"FRESH","line1":"1 56200U 23054Y   26263.14464117  .00001736  00000+0  65761-4 0  9999","line2":"2 56200  97.2543 147.0811 0004069  71.2624 288.9057 15.28203600191522","mean_motion":15.282036,"eccentricity":0.0004069,"inclination_deg":97.2543,"raan_deg":147.0811,"arg_perigee_deg":71.2624,"mean_anomaly_deg":288.9057,"bstar":6.5761e-5,"rev_number":19152,"period_min":94.228282147745,"perigee_km":478.39139121677,"apogee_km":483.97350538379,"semimajor_km":6859.3194483003,"source":"CELESTRAK","updated_at":"2026-09-20T09:00:47.452465Z"}}